Location: DARK SKY Beskydy - Park tmavé oblohy, www.darkskybeskydy.cz
(49.4926°N, 18.5016°E)
Time: 17:27:21
(UTC+02:00)

PCSat - Pass Details

Date: 10 August 2024
Orbit: 781 x 793 km, 67.1° (Epoch: 08 September)

Event Time Altitude Azimuth Distance (km) Brightness Sun altitude
Rises 21:01:21 0° 288° (WNW) 3,290 14.5 -7.9°
Reaches altitude 10° 21:05:02 10° 313° (NW) 2,364 13.7 -8.4°
Maximum altitude 21:07:51 14° 345° (NNW) 2,092 12.6 -8.7°
Drops below altitude 10° 21:10:40 10° 16° (NNE) 2,369 12.3 -9.1°
Sets 21:14:22 0° 42° (NE) 3,301 12.7 -9.6°
